Location: Lynch Observatory
(39.9540°N, 75.1861°W)
Time: 20:23:26
(UTC-04:00)

UWE-3 - Pass Details

Date: 27 April 2024
Orbit: 569 x 651 km, 97.8° (Epoch: 28 May)

Event Time Altitude Azimuth Distance (km) Brightness Sun altitude
Rises 03:06:43 0° 19° (NNE) 2,883 ? -28.3°
Reaches altitude 10° 03:08:58 10° 26° (NNE) 1,987 ? -28.1°
Enters shadow 03:12:52 43° 89° (E) 883 ? -27.6°
